Time,TemperatureF,DewpointF,PressureIn,WindDirection,WindDirectionDegrees,WindSpeedMPH,WindSpeedGustMPH,Humidity,HourlyPrecipIn,Conditions,Clouds,dailyrainin,SoftwareType,DateUTC
2013-01-21 00:10:00,18.6,13.0,30.23,WNW,285,6.0,-999.0,77,-99.99,,,0.00,weatherlink.com 1.10,2013-01-21 06:10:00,
2013-01-21 00:25:00,18.4,12.0,30.23,WNW,303,4.0,-999.0,76,-99.99,,,0.00,weatherlink.com 1.10,2013-01-21 06:25:00,
2013-01-21 00:40:00,18.0,11.0,30.23,WNW,284,2.0,-999.0,75,-99.99,,,0.00,weatherlink.com 1.10,2013-01-21 06:40:00,
2013-01-21 00:55:00,17.5,11.0,30.23,NW,311,0.0,-999.0,75,-99.99,,,0.00,weatherlink.com 1.10,2013-01-21 06:55:00,
2013-01-21 01:11:00,17.1,11.0,30.23,NW,313,0.0,-999.0,77,-99.99,,,0.00,weatherlink.com 1.10,2013-01-21 07:11:00,
2013-01-21 01:26:00,17.0,12.0,30.23,NW,315,0.0,-999.0,79,-99.99,,,0.00,weatherlink.com 1.10,2013-01-21 07:26:00,
2013-01-21 01:41:00,17.0,12.0,30.23,NW,315,4.0,-999.0,80,-99.99,,,0.00,weatherlink.com 1.10,2013-01-21 07:41:00,
2013-01-21 01:56:00,16.9,12.0,30.24,NW,313,4.0,-999.0,82,-99.99,,,0.00,weatherlink.com 1.10,2013-01-21 07:56:00,
2013-01-21 02:10:00,17.0,13.0,30.23,NW,311,3.0,-999.0,83,-99.99,,,0.00,weatherlink.com 1.10,2013-01-21 08:10:00,
2013-01-21 02:25:00,17.0,13.0,30.23,NW,307,2.0,-999.0,83,-99.99,,,0.00,weatherlink.com 1.10,2013-01-21 08:25:00,
2013-01-21 02:41:00,16.8,12.0,30.23,WNW,302,5.0,-999.0,81,-99.99,,,0.00,weatherlink.com 1.10,2013-01-21 08:41:00,
2013-01-21 02:56:00,16.2,11.0,30.23,NW,315,6.0,-999.0,79,-99.99,,,0.00,weatherlink.com 1.10,2013-01-21 08:56:00,
2013-01-21 03:10:00,16.0,10.0,30.22,WNW,283,3.0,-999.0,78,-99.99,,,0.00,weatherlink.com 1.10,2013-01-21 09:10:00,
2013-01-21 03:25:00,15.6,10.0,30.22,WNW,294,4.0,-999.0,78,-99.99,,,0.00,weatherlink.com 1.10,2013-01-21 09:25:00,
2013-01-21 03:40:00,15.6,10.0,30.21,WNW,294,4.0,-999.0,79,-99.99,,,0.00,weatherlink.com 1.10,2013-01-21 09:40:00,
2013-01-21 03:56:00,15.7,10.0,30.21,WNW,298,10.0,-999.0,77,-99.99,,,0.00,weatherlink.com 1.10,2013-01-21 09:56:00,
2013-01-21 04:11:00,15.3,9.0,30.21,West,280,7.0,-999.0,77,-99.99,,,0.00,weatherlink.com 1.10,2013-01-21 10:11:00,
2013-01-21 04:26:00,14.9,9.0,30.21,West,281,6.0,-999.0,76,-99.99,,,0.00,weatherlink.com 1.10,2013-01-21 10:26:00,
2013-01-21 04:41:00,14.9,9.0,30.22,West,281,10.0,-999.0,78,-99.99,,,0.00,weatherlink.com 1.10,2013-01-21 10:41:00,
2013-01-21 04:56:00,14.2,9.0,30.21,NW,325,1.0,-999.0,78,-99.99,,,0.00,weatherlink.com 1.10,2013-01-21 10:56:00,
2013-01-21 05:12:00,14.1,8.0,30.21,NW,315,10.0,-999.0,77,-99.99,,,0.00,weatherlink.com 1.10,2013-01-21 11:12:00,
2013-01-21 05:26:00,14.0,8.0,30.21,WNW,294,6.0,-999.0,77,-99.99,,,0.00,weatherlink.com 1.10,2013-01-21 11:26:00,
2013-01-21 05:42:00,13.9,8.0,30.21,WNW,303,4.0,-999.0,77,-99.99,,,0.00,weatherlink.com 1.10,2013-01-21 11:42:00,
2013-01-21 05:57:00,13.9,8.0,30.21,NW,309,7.0,-999.0,77,-99.99,,,0.00,weatherlink.com 1.10,2013-01-21 11:57:00,
2013-01-21 06:11:00,13.9,8.0,30.21,NW,306,4.0,-999.0,78,-99.99,,,0.00,weatherlink.com 1.10,2013-01-21 12:11:00,
2013-01-21 06:26:00,14.0,9.0,30.21,NW,319,0.0,-999.0,79,-99.99,,,0.00,weatherlink.com 1.10,2013-01-21 12:26:00,
2013-01-21 06:41:00,13.9,9.0,30.21,WNW,283,0.0,-999.0,80,-99.99,,,0.00,weatherlink.com 1.10,2013-01-21 12:41:00,
2013-01-21 06:56:00,14.0,9.0,30.21,West,267,11.0,-999.0,79,-99.99,,,0.00,weatherlink.com 1.10,2013-01-21 12:56:00,
2013-01-21 07:12:00,13.9,8.0,30.21,WSW,253,6.0,-999.0,78,-99.99,,,0.00,weatherlink.com 1.10,2013-01-21 13:12:00,
2013-01-21 07:27:00,13.7,8.0,30.21,WNW,288,10.0,-999.0,79,-99.99,,,0.00,weatherlink.com 1.10,2013-01-21 13:27:00,
2013-01-21 07:42:00,13.9,8.0,30.22,West,271,8.0,-999.0,76,-99.99,,,0.00,weatherlink.com 1.10,2013-01-21 13:42:00,
2013-01-21 07:57:00,13.7,7.0,30.22,WNW,282,12.0,-999.0,76,-99.99,,,0.00,weatherlink.com 1.10,2013-01-21 13:57:00,
2013-01-21 08:12:00,13.5,7.0,30.22,WNW,298,13.0,-999.0,75,-99.99,,,0.00,weatherlink.com 1.10,2013-01-21 14:12:00,
2013-01-21 08:27:00,13.1,6.0,30.22,WNW,285,12.0,-999.0,73,-99.99,,,0.00,weatherlink.com 1.10,2013-01-21 14:27:00,
2013-01-21 08:42:00,13.0,6.0,30.22,WNW,297,7.0,-999.0,72,-99.99,,,0.00,weatherlink.com 1.10,2013-01-21 14:42:00,
2013-01-21 08:57:00,12.9,5.0,30.24,West,269,10.0,-999.0,72,-99.99,,,0.00,weatherlink.com 1.10,2013-01-21 14:57:00,
2013-01-21 09:12:00,12.7,5.0,30.25,West,267,6.0,-999.0,71,-99.99,,,0.00,weatherlink.com 1.10,2013-01-21 15:12:00,
2013-01-21 09:28:00,12.9,5.0,30.25,WNW,288,11.0,-999.0,71,-99.99,,,0.00,weatherlink.com 1.10,2013-01-21 15:28:00,
2013-01-21 09:43:00,12.8,4.0,30.24,NW,305,20.0,-999.0,69,-99.99,,,0.00,weatherlink.com 1.10,2013-01-21 15:43:00,
2013-01-21 10:13:00,12.5,3.0,30.26,NW,312,9.0,-999.0,67,-99.99,,,0.00,weatherlink.com 1.10,2013-01-21 16:13:00,
2013-01-21 10:28:00,11.7,3.0,30.25,West,274,9.0,-999.0,69,-99.99,,,0.00,weatherlink.com 1.10,2013-01-21 16:28:00,
2013-01-21 10:43:00,11.5,2.0,30.25,WNW,283,6.0,-999.0,67,-99.99,,,0.00,weatherlink.com 1.10,2013-01-21 16:43:00,
2013-01-21 10:58:00,11.3,5.0,30.25,WNW,285,7.0,-999.0,74,-99.99,,,0.00,weatherlink.com 1.10,2013-01-21 16:58:00,
2013-01-21 11:13:00,10.6,5.0,30.25,NW,322,9.0,-999.0,78,-99.99,,,0.00,weatherlink.com 1.10,2013-01-21 17:13:00,
2013-01-21 11:28:00,11.3,2.0,30.25,NW,307,11.0,-999.0,67,-99.99,,,0.00,weatherlink.com 1.10,2013-01-21 17:28:00,
2013-01-21 11:43:00,11.5,0.0,30.25,WNW,302,9.0,-999.0,60,-99.99,,,0.00,weatherlink.com 1.10,2013-01-21 17:43:00,
2013-01-21 11:58:00,11.9,0.0,30.24,NW,310,17.0,-999.0,60,-99.99,,,0.00,weatherlink.com 1.10,2013-01-21 17:58:00,
2013-01-21 12:13:00,11.7,1.0,30.24,NW,321,15.0,-999.0,61,-99.99,,,0.00,weatherlink.com 1.10,2013-01-21 18:13:00,
2013-01-21 12:44:00,12.0,-1.0,30.23,West,277,14.0,-999.0,55,-99.99,,,0.00,weatherlink.com 1.10,2013-01-21 18:44:00,
2013-01-21 12:59:00,12.5,-2.0,30.24,West,280,16.0,-999.0,53,-99.99,,,0.00,weatherlink.com 1.10,2013-01-21 18:59:00,
2013-01-21 13:14:00,12.2,-3.0,30.24,NNW,329,21.0,-999.0,50,-99.99,,,0.00,weatherlink.com 1.10,2013-01-21 19:14:00,
2013-01-21 13:29:00,11.9,-3.0,30.25,West,281,14.0,-999.0,52,-99.99,,,0.00,weatherlink.com 1.10,2013-01-21 19:29:00,
2013-01-21 13:44:00,12.4,-2.0,30.25,NW,318,23.0,-999.0,53,-99.99,,,0.00,weatherlink.com 1.10,2013-01-21 19:44:00,
2013-01-21 13:59:00,12.5,-1.0,30.25,WNW,282,13.0,-999.0,54,-99.99,,,0.00,weatherlink.com 1.10,2013-01-21 19:59:00,
2013-01-21 14:14:00,12.3,-3.0,30.26,NW,314,9.0,-999.0,51,-99.99,,,0.00,weatherlink.com 1.10,2013-01-21 20:14:00,
2013-01-21 14:29:00,12.5,-2.0,30.26,WNW,284,15.0,-999.0,53,-99.99,,,0.00,weatherlink.com 1.10,2013-01-21 20:29:00,
2013-01-21 14:44:00,12.7,-2.0,30.27,WNW,284,8.0,-999.0,53,-99.99,,,0.00,weatherlink.com 1.10,2013-01-21 20:44:00,
2013-01-21 14:59:00,12.8,-2.0,30.27,NW,320,12.0,-999.0,51,-99.99,,,0.00,weatherlink.com 1.10,2013-01-21 20:59:00,
2013-01-21 15:14:00,12.7,-2.0,30.28,NNW,329,12.0,-999.0,51,-99.99,,,0.00,weatherlink.com 1.10,2013-01-21 21:14:00,
2013-01-21 15:29:00,12.4,-2.0,30.27,West,271,19.0,-999.0,52,-99.99,,,0.00,weatherlink.com 1.10,2013-01-21 21:29:00,
2013-01-21 15:44:00,11.9,-2.0,30.28,WNW,303,9.0,-999.0,53,-99.99,,,0.00,weatherlink.com 1.10,2013-01-21 21:44:00,
2013-01-21 15:59:00,12.1,-3.0,30.28,NW,320,13.0,-999.0,52,-99.99,,,0.00,weatherlink.com 1.10,2013-01-21 21:59:00,
2013-01-21 16:15:00,12.4,-2.0,30.28,West,274,12.0,-999.0,53,-99.99,,,0.00,weatherlink.com 1.10,2013-01-21 22:15:00,
2013-01-21 16:30:00,12.0,-2.0,30.28,West,269,8.0,-999.0,54,-99.99,,,0.00,weatherlink.com 1.10,2013-01-21 22:30:00,
2013-01-21 16:45:00,11.7,-2.0,30.28,West,265,5.0,-999.0,55,-99.99,,,0.00,weatherlink.com 1.10,2013-01-21 22:45:00,
2013-01-21 17:00:00,11.3,-2.0,30.28,WNW,288,9.0,-999.0,56,-99.99,,,0.00,weatherlink.com 1.10,2013-01-21 23:00:00,
2013-01-21 17:15:00,11.0,-2.0,30.28,West,277,10.0,-999.0,56,-99.99,,,0.00,weatherlink.com 1.10,2013-01-21 23:15:00,
2013-01-21 17:30:00,10.8,-2.0,30.28,West,267,10.0,-999.0,57,-99.99,,,0.00,weatherlink.com 1.10,2013-01-21 23:30:00,
2013-01-21 17:45:00,10.7,-2.0,30.29,WNW,287,6.0,-999.0,58,-99.99,,,0.00,weatherlink.com 1.10,2013-01-21 23:45:00,
2013-01-21 18:00:00,10.4,-2.0,30.29,WNW,288,4.0,-999.0,58,-99.99,,,0.00,weatherlink.com 1.10,2013-01-22 00:00:00,
2013-01-21 18:15:00,10.2,-2.0,30.30,WNW,283,4.0,-999.0,59,-99.99,,,0.00,weatherlink.com 1.10,2013-01-22 00:15:00,
2013-01-21 18:30:00,10.1,-2.0,30.30,WNW,298,7.0,-999.0,59,-99.99,,,0.00,weatherlink.com 1.10,2013-01-22 00:30:00,
2013-01-21 18:45:00,9.9,-2.0,30.30,WNW,295,11.0,-999.0,60,-99.99,,,0.00,weatherlink.com 1.10,2013-01-22 00:45:00,
2013-01-21 19:00:00,9.7,-1.0,30.30,West,270,4.0,-999.0,61,-99.99,,,0.00,weatherlink.com 1.10,2013-01-22 01:00:00,
2013-01-21 19:16:00,9.5,-2.0,30.31,NW,324,7.0,-999.0,61,-99.99,,,0.00,weatherlink.com 1.10,2013-01-22 01:16:00,
2013-01-21 19:31:00,9.1,-2.0,30.31,West,281,5.0,-999.0,62,-99.99,,,0.00,weatherlink.com 1.10,2013-01-22 01:31:00,
2013-01-21 19:46:00,8.9,-1.0,30.32,WNW,299,4.0,-999.0,63,-99.99,,,0.00,weatherlink.com 1.10,2013-01-22 01:46:00,
2013-01-21 20:01:00,8.7,-2.0,30.32,WNW,286,10.0,-999.0,62,-99.99,,,0.00,weatherlink.com 1.10,2013-01-22 02:01:00,
2013-01-21 20:16:00,8.5,-2.0,30.32,West,281,9.0,-999.0,63,-99.99,,,0.00,weatherlink.com 1.10,2013-01-22 02:16:00,
2013-01-21 20:31:00,8.2,-2.0,30.33,WNW,286,8.0,-999.0,63,-99.99,,,0.00,weatherlink.com 1.10,2013-01-22 02:31:00,
2013-01-21 20:46:00,8.0,-2.0,30.33,WNW,287,4.0,-999.0,65,-99.99,,,0.00,weatherlink.com 1.10,2013-01-22 02:46:00,
2013-01-21 21:02:00,7.9,-1.0,30.33,WNW,289,8.0,-999.0,66,-99.99,,,0.00,weatherlink.com 1.10,2013-01-22 03:02:00,
2013-01-21 21:16:00,7.8,-1.0,30.34,WNW,288,12.0,-999.0,67,-99.99,,,0.00,weatherlink.com 1.10,2013-01-22 03:16:00,
2013-01-21 21:31:00,7.6,-1.0,30.33,WNW,297,14.0,-999.0,68,-99.99,,,0.00,weatherlink.com 1.10,2013-01-22 03:31:00,
2013-01-21 21:46:00,7.4,-1.0,30.34,WNW,292,9.0,-999.0,68,-99.99,,,0.00,weatherlink.com 1.10,2013-01-22 03:46:00,
2013-01-21 22:02:00,7.1,-1.0,30.34,WNW,302,12.0,-999.0,69,-99.99,,,0.00,weatherlink.com 1.10,2013-01-22 04:02:00,
2013-01-21 22:17:00,6.8,-1.0,30.34,WNW,291,12.0,-999.0,69,-99.99,,,0.00,weatherlink.com 1.10,2013-01-22 04:17:00,
2013-01-21 22:32:00,6.5,-2.0,30.35,WNW,290,12.0,-999.0,69,-99.99,,,0.00,weatherlink.com 1.10,2013-01-22 04:32:00,
2013-01-21 22:47:00,6.5,-1.0,30.36,WNW,292,4.0,-999.0,70,-99.99,,,0.00,weatherlink.com 1.10,2013-01-22 04:47:00,
2013-01-21 23:01:00,6.3,-1.0,30.35,WNW,291,2.0,-999.0,71,-99.99,,,0.00,weatherlink.com 1.10,2013-01-22 05:01:00,
2013-01-21 23:17:00,6.3,-1.0,30.36,WNW,295,4.0,-999.0,71,-99.99,,,0.00,weatherlink.com 1.10,2013-01-22 05:17:00,
2013-01-21 23:32:00,6.2,-1.0,30.36,West,280,5.0,-999.0,71,-99.99,,,0.00,weatherlink.com 1.10,2013-01-22 05:32:00,
2013-01-21 23:47:00,6.1,-1.0,30.35,WNW,296,6.0,-999.0,72,-99.99,,,0.00,weatherlink.com 1.10,2013-01-22 05:47:00,